User: anonymous   Login
Location: Caltech
(34.1382°N, 118.1253°W)
Time: 23:42:09
(UTC-07:00)
Language:

RS-15 - Orbit

View from above orbital plane
View from above orbital plane
View from above satellite
View from above satellite

Ground track
Ground track

The orbit data is extracted from the following two-line orbital elements,

1 23439U 94085A   16235.77302770 -.00000022 +00000-0 +58006-3 0  9994
2 23439 064.8203 341.8329 0166661 296.4604 237.6649 11.27564754891763
Epoch (UTC): 22 August 2016 18:33:09
Eccentricity: 0.0166661
inclination: 64.8203°
perigee height: 1882 km
apogee height: 2162 km
right ascension of ascending node: 341.8329°
argument of perigee: 296.4604°
revolutions per day: 11.27564754
mean anomaly at epoch: 237.6649°
orbit number at epoch: 89176

The dashed part of the orbit path shows where the satellite is in the earth's shadow,  

DLR